Location: Nashville
(36.1660°N, 86.7840°W)
Time: 20:14:54
(UTC-05:00)

SO-50 - Pass Details

Date: 26 May 2022
Orbit: 586 x 697 km, 64.6° (Epoch: 29 June)

Event Time Altitude Azimuth Distance (km) Brightness Sun altitude
Rises 20:42:59 0° 311° (NW) 3,078 ? -9.1°
Reaches altitude 10° 20:46:00 10° 293° (WNW) 2,154 ? -9.6°
Maximum altitude 20:49:14 18° 252° (WSW) 1,676 ? -10.1°
Drops below altitude 10° 20:52:28 10° 210° (SSW) 2,124 ? -10.7°
Sets 20:55:25 0° 191° (S) 3,019 ? -11.1°
